NOAA 16 DEB, 41146

Orbit data source: Space-Track

NOAA 16 DEB, 41146 is space debris in SSO originally from a launch on Thu, 21 Sep 2000 UTC launched from the Air Force Western Test Range (AFWTR). Debris objects in space refer to the collection of defunct objects orbiting the Earth. Examples of debris include non-operational satellites, rocket bodies, and fragments generated from explosions, collisions, or faulty payload assembly.

Loading next visibility...
Identifier
41146, 2000-055CD
Orbit
SSO
Country
Flag of USUS
Related business
Manufacturer
Unknown
Mission
Spacecraft
Bus & Motor
Unknown
Mass
Unknown
Launch date (UTC)
2000-09-21 (25 years ago)
Launch vehicle
Unknown
Launch site
Air Force Western Test Range (AFWTR)
Object type
Payload
Rocket body
Debris
Shape & HBR
Unknown
Radar Cross Section
Small (<0.1 m²)

Expand to show TLE details & history
Last TLE update: 2 days ago

TLE from 2 days ago
0 NOAA 16 DEB
1 41146U 00055CD  25258.55700783  .00015243  00000-0  42706-2 0  9999
2 41146  98.8275   7.5303 0022971 205.6347 154.3706 14.45985410506630
Epoch: 2025-09-15T13:22Z
TLE epoch observation values (Epoch: 2025-09-15T13:22:05.476Z)
Latitude
-0.00006°
Longitude
172.24754°
Altitude
756.487 km
Speed
7.468 km/s
True Right ascension
00h 30m 07s
True Declination
0° 00' 00"
Sunlit
Object was in full shadow at epoch
Visualization orbit readout
Latitude
Unknown
Longitude
Unknown
Altitude
Unknown
Speed
Unknown
Apparent Right ascension
Unknown
Apparent Declination
Unknown
Sunlit
N/A
Visualization observer readout
Local Sidereal Time
15:16:35
Azimuth
Unknown
Elevation
Unknown
Doppler factor
Unknown
Orbital elements
Apogee altitude
752.262 km
Perigee altitude
719.579 km
Semi-major axis
7,114.058 km
Eccentricity
0.0023
Inclination
98.8275°
RAAN
7.5303°
Arg. of periapsis
205.6347°
True anomaly
154.48416°
Mean anomaly
154.3706°
Eccentric anomaly
154.42741°
Mean motion
3.61715 °/min
Orbital period
99.53 mins
BSTAR
0.0042706
Loading maneuver chart data...
Computing Atmospheric mass density...
Loading historical data...
Loading historical data...
Loading historical data...
Loading historical data...
Loading historical data...
Loading historical data...
Loading historical data...

Documentation

Showing up to 5 results
|